Regional Weather Roundup
Issued by NWS Goodland, KS

Home | Current Version | Previous Version | Graphics & Text | Print | Product List | Glossary On
Versions: 1 2 3 4 5 6 7 8 9 10 11 12 13 14 15 16 17 18 19 20 21 22 23 24 25 26 27 28 29 30 31 32 33 34 35 36 37 38 39 40 41 42 43 44 45 46 47 48 49 50
000
ASUS43 KGLD 201308
RWRGLD

GOODLAND FORECAST AREA HOURLY WEATHER ROUNDUP
NATIONAL WEATHER SERVICE GOODLAND KS
600 AM MST MON FEB 20 2017

...OFFICIAL OBSERVATIONS...

CITY           SKY/WX    TMP DP  RH WIND       PRES   REMARKS
GOODLAND KS    PTCLDY    44  22  41 NW21      29.81R
HILL CITY KS   CLOUDY    48  41  76 W3        29.72R
IMPERIAL NEB   MOCLDY    46  26  45 NW12G21   29.78R
MCCOOK NEB     CLOUDY    48  37  65 NW6       29.74R
AKRON CO       CLEAR     36  17  46 W14       29.87R
BURLINGTON CO  CLEAR     41  18  39 NW16      29.85R
LIMON CO       CLEAR     28  18  66 W13       29.91R WCI  17
$$

...UNOFFICIAL OBSERVATIONS...

CITY           SKY/WX    TMP DP  RH WIND       PRES   REMARKS
LENORA KS        N/A     49  32  52 NW8         N/A
NORTON KS      CLEAR     46  37  71 W9        29.71
SHARON SPRINGS   N/A     46  23  40 NW20G30     N/A
TRENTON NEB      N/A     51  32  48 NW12        N/A
KIT CARSON CO    N/A     40  26  56 MISG        N/A
YUMA CO        FAIR      41  18  38 NW15G23   29.84S
$$



USA.gov is the U.S. government's official web portal to all federal, state and local government web resources and services.